Radiation Dose at Monitoring Post of Fukushima Daini Nuclear Power Station
Date,Time,MP-1(microSv/h),MP-2(microSv/h),MP-3(microSv/h),MP-4(microSv/h),MP-5(microSv/h),MP-6(microSv/h),MP-7(microSv/h),Wind Direction,Wind Velocity(m/s),Rain
2024/04/06,00:00,0.146,0.126,0.207,0.191,0.204,0.115,0.075,south-southwest,3.1,Yes
2024/04/06,00:10,0.145,0.126,0.206,0.192,0.206,0.114,0.075,south-southwest,2.7,Yes
2024/04/06,00:20,0.147,0.127,0.207,0.192,0.205,0.116,0.076,south,3.0,Yes
2024/04/06,00:30,0.147,0.128,0.208,0.193,0.205,0.115,0.077,south,3.3,Yes
2024/04/06,00:40,0.147,0.130,0.209,0.193,0.206,0.116,0.077,south,4.4,Yes
2024/04/06,00:50,0.149,0.129,0.209,0.194,0.206,0.117,0.077,south,5.9,Yes
2024/04/06,01:00,0.149,0.131,0.209,0.195,0.207,0.118,0.078,south,5.4,Yes
2024/04/06,01:10,0.149,0.130,0.211,0.195,0.208,0.118,0.078,south-southwest,4.0,Yes
2024/04/06,01:20,0.149,0.130,0.209,0.195,0.206,0.117,0.077,south-southwest,5.0,Yes
2024/04/06,01:30,0.147,0.129,0.209,0.194,0.207,0.117,0.078,south-southwest,3.5,Yes
2024/04/06,01:40,0.147,0.129,0.208,0.193,0.206,0.118,0.077,south-southwest,4.1,Yes
2024/04/06,01:50,0.149,0.129,0.209,0.194,0.205,0.118,0.079,south,3.6,Yes
2024/04/06,02:00,0.148,0.129,0.209,0.193,0.207,0.117,0.078,south-southeast,1.8,Yes
2024/04/06,02:10,0.148,0.128,0.207,0.192,0.204,0.117,0.077,south-southeast,1.3,Yes
2024/04/06,02:20,0.146,0.127,0.206,0.193,0.204,0.116,0.076,south-southeast,1.0,Yes
2024/04/06,02:30,0.146,0.128,0.206,0.192,0.205,0.115,0.077,southeast,1.2,Yes
2024/04/06,02:40,0.146,0.127,0.205,0.191,0.204,0.115,0.076,south-southeast,1.7,Yes
2024/04/06,02:50,0.145,0.127,0.205,0.192,0.204,0.116,0.076,south-southeast,1.5,No
2024/04/06,03:00,0.145,0.126,0.206,0.191,0.205,0.116,0.076,south,2.2,Yes
2024/04/06,03:10,0.145,0.125,0.205,0.191,0.203,0.115,0.075,south,2.0,Yes
2024/04/06,03:20,0.146,0.126,0.205,0.191,0.204,0.114,0.075,south,2.2,Yes
2024/04/06,03:30,0.145,0.126,0.205,0.192,0.204,0.114,0.075,south,3.0,Yes
2024/04/06,03:40,0.145,0.126,0.206,0.191,0.203,0.116,0.076,south,3.7,Yes
2024/04/06,03:50,0.145,0.126,0.206,0.193,0.205,0.115,0.075,south-southwest,3.0,Yes
2024/04/06,04:00,0.145,0.127,0.204,0.191,0.204,0.114,0.075,south-southwest,2.7,Yes
2024/04/06,04:10,0.144,0.126,0.205,0.190,0.204,0.114,0.075,south-southwest,1.9,Yes
2024/04/06,04:20,0.144,0.125,0.205,0.191,0.204,0.114,0.075,south-southwest,1.5,Yes
2024/04/06,04:30,0.145,0.126,0.205,0.190,0.204,0.114,0.075,southwest,0.6,Yes
2024/04/06,04:40,0.144,0.127,0.204,0.191,0.204,0.114,0.075,south-southwest,0.9,Yes
2024/04/06,04:50,0.144,0.126,0.205,0.191,0.203,0.114,0.075,south-southwest,0.9,Yes
2024/04/06,05:00,0.144,0.126,0.205,0.191,0.203,0.115,0.075,south-southwest,0.7,Yes
2024/04/06,05:10,0.144,0.125,0.204,0.190,0.203,0.114,0.075,south-southwest,0.7,Yes
2024/04/06,05:20,0.144,0.126,0.204,0.191,0.204,0.114,0.075,southwest,0.7,Yes
2024/04/06,05:30,0.145,0.127,0.205,0.190,0.204,0.115,0.075,west-southwest,1.5,Yes
2024/04/06,05:40,0.144,0.125,0.204,0.191,0.203,0.115,0.075,west-southwest,1.8,Yes
2024/04/06,05:50,0.145,0.126,0.205,0.191,0.202,0.114,0.075,southwest,1.7,Yes
2024/04/06,06:00,0.145,0.126,0.205,0.190,0.203,0.114,0.075,south,1.0,Yes
2024/04/06,06:10,0.144,0.125,0.204,0.190,0.202,0.113,0.075,south-southeast,1.2,Yes
2024/04/06,06:20,0.144,0.125,0.204,0.191,0.203,0.114,0.075,southeast,1.1,Yes
2024/04/06,06:30,0.144,0.125,0.204,0.190,0.204,0.114,0.075,south-southwest,0.6,Yes
2024/04/06,06:40,0.143,0.126,0.205,0.189,0.203,0.114,0.075,south-southwest,0.8,Yes
2024/04/06,06:50,0.144,0.126,0.205,0.191,0.205,0.114,0.074,southwest,0.6,Yes
2024/04/06,07:00,0.143,0.126,0.204,0.189,0.202,0.114,0.074,-,CALM,Yes
2024/04/06,07:10,0.144,0.126,0.206,0.191,0.204,0.114,0.074,west,1.1,Yes
2024/04/06,07:20,0.145,0.126,0.205,0.191,0.204,0.114,0.074,-,CALM,Yes
2024/04/06,07:30,0.145,0.126,0.205,0.191,0.203,0.114,0.074,-,CALM,Yes
2024/04/06,07:40,0.144,0.126,0.205,0.192,0.204,0.114,0.074,-,CALM,Yes
2024/04/06,07:50,0.144,0.128,0.205,0.190,0.202,0.114,0.075,-,CALM,Yes
2024/04/06,08:00,0.144,0.127,0.205,0.190,0.205,0.115,0.076,-,CALM,Yes
2024/04/06,08:10,0.145,0.126,0.206,0.191,0.203,0.115,0.075,west-northwest,0.9,Yes
2024/04/06,08:20,0.144,0.127,0.206,0.192,0.203,0.116,0.075,-,CALM,Yes
2024/04/06,08:30,0.147,0.127,0.206,0.191,0.206,0.116,0.077,west,0.9,Yes
2024/04/06,08:40,0.146,0.127,0.206,0.191,0.204,0.117,0.078,west-northwest,1.4,Yes
2024/04/06,08:50,0.145,0.127,0.204,0.192,0.205,0.117,0.078,west,1.0,Yes
2024/04/06,09:00,0.146,0.127,0.206,0.192,0.205,0.117,0.077,west-northwest,1.7,Yes
2024/04/06,09:10,0.146,0.128,0.207,0.192,0.203,0.118,0.078,west-northwest,0.6,Yes
2024/04/06,09:20,0.146,0.127,0.207,0.193,0.204,0.118,0.079,-,CALM,Yes
2024/04/06,09:30,0.147,0.128,0.206,0.192,0.205,0.118,0.078,-,CALM,Yes
2024/04/06,09:40,0.147,0.128,0.205,0.192,0.205,0.118,0.079,-,CALM,Yes
2024/04/06,09:50,0.147,0.129,0.206,0.192,0.204,0.117,0.078,-,CALM,Yes
2024/04/06,10:00,0.146,0.127,0.205,0.192,0.204,0.117,0.078,-,CALM,Yes
2024/04/06,10:10,0.146,0.128,0.205,0.191,0.205,0.116,0.079,north-northeast,0.7,Yes
2024/04/06,10:20,0.146,0.127,0.206,0.190,0.205,0.117,0.079,-,CALM,Yes
2024/04/06,10:30,0.145,0.127,0.204,0.191,0.204,0.117,0.077,-,CALM,Yes
2024/04/06,10:40,0.144,0.127,0.204,0.191,0.205,0.116,0.077,-,CALM,Yes
2024/04/06,10:50,0.145,0.127,0.204,0.191,0.204,0.116,0.076,-,CALM,Yes
2024/04/06,11:00,0.145,0.127,0.204,0.191,0.204,0.115,0.077,-,CALM,Yes
2024/04/06,11:10,0.145,0.127,0.204,0.191,0.202,0.115,0.077,west-southwest,0.7,Yes
2024/04/06,11:20,0.144,0.127,0.203,0.191,0.205,0.115,0.077,northwest,0.6,Yes
2024/04/06,11:30,0.144,0.127,0.203,0.190,0.203,0.115,0.076,-,CALM,Yes
2024/04/06,11:40,0.145,0.126,0.204,0.189,0.203,0.115,0.076,west,0.9,Yes
2024/04/06,11:50,0.144,0.126,0.203,0.190,0.203,0.115,0.076,west-northwest,0.8,Yes
2024/04/06,12:00,0.145,0.127,0.203,0.189,0.202,0.115,0.076,-,CALM,Yes
2024/04/06,12:10,0.144,0.126,0.204,0.189,0.203,0.115,0.076,northwest,1.0,Yes
2024/04/06,12:20,0.145,0.126,0.204,0.190,0.202,0.115,0.077,northwest,0.8,Yes
2024/04/06,12:30,0.144,0.126,0.203,0.189,0.204,0.115,0.076,west-northwest,0.7,Yes
2024/04/06,12:40,0.145,0.127,0.204,0.189,0.202,0.115,0.076,northwest,1.0,Yes
2024/04/06,12:50,0.145,0.127,0.201,0.190,0.204,0.115,0.076,north-northwest,0.9,Yes
2024/04/06,13:00,0.145,0.127,0.203,0.189,0.203,0.115,0.076,-,CALM,Yes
2024/04/06,13:10,0.144,0.126,0.203,0.190,0.203,0.114,0.076,-,CALM,Yes
2024/04/06,13:20,0.145,0.127,0.201,0.188,0.203,0.114,0.077,-,CALM,Yes
2024/04/06,13:30,0.145,0.126,0.203,0.190,0.202,0.114,0.076,northeast,0.8,Yes
2024/04/06,13:40,0.145,0.127,0.201,0.189,0.203,0.115,0.077,-,CALM,Yes
2024/04/06,13:50,0.144,0.126,0.202,0.189,0.203,0.115,0.077,-,CALM,Yes
2024/04/06,14:00,0.146,0.127,0.203,0.190,0.204,0.114,0.077,-,CALM,Yes
2024/04/06,14:10,0.145,0.127,0.203,0.189,0.203,0.115,0.077,south,0.8,Yes
2024/04/06,14:20,0.146,0.128,0.203,0.190,0.202,0.115,0.078,south,1.8,Yes
2024/04/06,14:30,0.145,0.127,0.203,0.188,0.204,0.115,0.077,south,2.7,Yes
2024/04/06,14:40,0.144,0.127,0.202,0.188,0.202,0.115,0.076,south-southeast,3.0,Yes
2024/04/06,14:50,0.145,0.126,0.201,0.189,0.204,0.114,0.076,south-southeast,3.6,Yes
2024/04/06,15:00,0.144,0.127,0.202,0.188,0.202,0.115,0.077,southeast,4.5,Yes
2024/04/06,15:10,0.144,0.125,0.201,0.188,0.202,0.115,0.076,south-southeast,4.8,Yes
2024/04/06,15:20,0.144,0.126,0.202,0.189,0.203,0.115,0.076,south-southeast,4.0,Yes
2024/04/06,15:30,0.143,0.125,0.201,0.188,0.202,0.113,0.076,southeast,4.0,Yes
2024/04/06,15:40,0.143,0.125,0.201,0.188,0.202,0.114,0.076,southeast,3.8,Yes
2024/04/06,15:50,0.143,0.125,0.200,0.186,0.201,0.113,0.076,southeast,3.8,Yes
2024/04/06,16:00,0.144,0.125,0.201,0.187,0.203,0.114,0.075,southeast,3.2,Yes
2024/04/06,16:10,0.143,0.125,0.200,0.187,0.202,0.114,0.076,south-southeast,2.9,Yes
2024/04/06,16:20,0.143,0.125,0.201,0.188,0.202,0.113,0.075,south-southeast,2.1,Yes
2024/04/06,16:30,0.143,0.126,0.200,0.188,0.201,0.113,0.075,south,1.7,Yes
2024/04/06,16:40,0.142,0.125,0.201,0.185,0.203,0.113,0.075,south,1.3,Yes
2024/04/06,16:50,0.143,0.124,0.200,0.186,0.201,0.112,0.075,south,0.6,Yes
2024/04/06,17:00,0.141,0.125,0.201,0.188,0.202,0.113,0.074,-,CALM,Yes
2024/04/06,17:10,0.143,0.125,0.200,0.187,0.201,0.112,0.074,-,CALM,Yes
2024/04/06,17:20,0.142,0.124,0.200,0.187,0.201,0.113,0.074,-,CALM,Yes
2024/04/06,17:30,0.142,0.124,0.200,0.186,0.202,0.113,0.075,west-southwest,1.2,Yes
2024/04/06,17:40,0.142,0.125,0.201,0.188,0.201,0.114,0.075,southwest,1.5,Yes
2024/04/06,17:50,0.142,0.125,0.200,0.187,0.203,0.113,0.076,west-southwest,0.9,Yes
2024/04/06,18:00,0.142,0.125,0.200,0.187,0.201,0.114,0.075,northwest,0.8,Yes
2024/04/06,18:10,0.141,0.125,0.201,0.187,0.203,0.114,0.075,west-northwest,1.1,Yes
2024/04/06,18:20,0.143,0.124,0.200,0.186,0.201,0.113,0.075,northwest,1.7,Yes
2024/04/06,18:30,0.141,0.125,0.201,0.188,0.201,0.113,0.074,northwest,1.7,Yes
2024/04/06,18:40,0.142,0.123,0.200,0.186,0.201,0.112,0.075,northwest,2.3,Yes
2024/04/06,18:50,0.142,0.124,0.200,0.186,0.200,0.113,0.074,north-northwest,1.5,Yes
2024/04/06,19:00,0.141,0.124,0.200,0.188,0.201,0.113,0.075,northwest,1.9,Yes
2024/04/06,19:10,0.142,0.124,0.200,0.186,0.200,0.112,0.074,northwest,2.1,Yes
2024/04/06,19:20,0.142,0.124,0.200,0.187,0.201,0.113,0.074,north,2.0,Yes
2024/04/06,19:30,0.143,0.125,0.199,0.187,0.201,0.112,0.075,north-northwest,2.3,Yes
2024/04/06,19:40,0.141,0.124,0.200,0.186,0.201,0.112,0.074,northwest,3.2,Yes
2024/04/06,19:50,0.142,0.125,0.200,0.186,0.203,0.111,0.073,northwest,2.9,Yes
2024/04/06,20:00,0.142,0.124,0.200,0.186,0.200,0.112,0.074,northwest,3.1,Yes
2024/04/06,20:10,0.142,0.123,0.198,0.186,0.202,0.112,0.074,northwest,3.0,Yes
2024/04/06,20:20,0.142,0.124,0.200,0.187,0.200,0.112,0.074,north-northwest,3.1,Yes
2024/04/06,20:30,0.141,0.123,0.199,0.186,0.201,0.113,0.073,north-northwest,2.2,Yes
2024/04/06,20:40,0.143,0.124,0.199,0.187,0.200,0.112,0.073,northwest,3.2,Yes
2024/04/06,20:50,0.142,0.123,0.199,0.186,0.200,0.112,0.074,north-northwest,2.5,Yes
2024/04/06,21:00,0.140,0.123,0.198,0.185,0.201,0.112,0.074,northwest,4.0,Yes
2024/04/06,21:10,0.143,0.123,0.199,0.186,0.200,0.112,0.073,northwest,3.5,Yes
2024/04/06,21:20,0.142,0.123,0.199,0.186,0.202,0.113,0.074,northwest,4.4,Yes
2024/04/06,21:30,0.142,0.124,0.199,0.186,0.200,0.111,0.073,north-northwest,3.9,Yes
2024/04/06,21:40,0.141,0.124,0.200,0.186,0.200,0.112,0.072,northwest,3.1,No
2024/04/06,21:50,0.142,0.124,0.199,0.185,0.200,0.111,0.073,north-northwest,3.6,No
2024/04/06,22:00,0.141,0.124,0.199,0.186,0.201,0.112,0.073,north-northwest,4.2,No
2024/04/06,22:10,0.140,0.123,0.200,0.186,0.200,0.111,0.073,northwest,4.7,No
2024/04/06,22:20,0.141,0.124,0.198,0.186,0.200,0.111,0.072,northwest,4.2,No
2024/04/06,22:30,0.141,0.123,0.198,0.186,0.201,0.112,0.073,northwest,4.1,No
2024/04/06,22:40,0.141,0.124,0.199,0.185,0.199,0.112,0.073,northwest,3.3,No
2024/04/06,22:50,0.142,0.124,0.199,0.186,0.201,0.112,0.073,northwest,3.1,No
2024/04/06,23:00,0.142,0.123,0.200,0.186,0.199,0.111,0.073,northwest,3.3,No
2024/04/06,23:10,0.141,0.124,0.198,0.187,0.200,0.112,0.073,west-northwest,2.7,No
2024/04/06,23:20,0.140,0.123,0.199,0.186,0.200,0.111,0.074,west-northwest,1.6,No
2024/04/06,23:30,0.142,0.124,0.198,0.185,0.201,0.112,0.073,northwest,1.4,No
2024/04/06,23:40,0.140,0.123,0.199,0.187,0.201,0.112,0.072,west-northwest,1.7,No
2024/04/06,23:50,0.141,0.124,0.200,0.185,0.200,0.111,0.073,northwest,1.2,No
